Dewpoint
56 56 56 55 56 57 57 57 56 56 56 56 56 56 58 58 58 58 58 57 57 57 57 55 55 54 54 53 52 53 53 51 49 50 50 53 54 54 54 54 54 55 55
55 55 56 56 57 57 57 57 56 55 56 56 56 56 56 57 58 57 57 57 57 56 55 55 55 55 54 53 54 53 53 53 51 49 51 51 51 52 54 55 55 54 54
55 55 55 56 56 56 57 56 56 55 55 55 55 54 54 54 54 56 55 55 55 55 54 54 54 54 54 53 52 54 54 53 53 51 51 52 51 52 52 53 53 53 54
54 55 55 55 55 55 56 57 56 55 55 54 54 54 53 53 53 53 53 53 53 52 52 52 52 53 52 53 54 54 53 53 53 52 51 51 50 50 51 51 52 54 54
54 54 54 55 55 55 57 57 57 56 55 55 55 54 54 53 53 52 52 52 52 52 53 53 53 52 51 52 52 53 53 53 52 51 51 50 50 51 52 54 54 54 46
53 53 54 55 56 56 56 56 57 57 57 56 56 56 54 42 40 49 53 53 53 53 51 51 51 50 50 53 51 44 48 53 53 53 52 52 52 47 44 44 44 46 47
45 46 48 49 50 49 49 49 49 48 46 44 42 41 38 37 37 42 52 54 53 51 50 51 50 43 46 47 38 36 35 35 38 46 49 41 40 34 35 39 42 41 41
37 39 41 42 42 41 41 40 39 39 38 38 37 37 36 36 39 42 45 42 38 36 36 37 38 38 36 42 36 33 31 31 32 32 32 31 31 32 33 36 36 35 33
33 34 35 37 36 35 35 34 34 33 32 32 32 32 33 33 35 40 39 35 32 31 32 33 33 34 35 39 34 31 29 29 32 32 31 31 30 31 33 36 33 35 32
31 33 33 33 33 32 32 32 31 30 30 29 29 30 31 31 33 34 33 32 30 29 30 31 32 32 36 35 32 30 28 28 29 29 30 30 30 28 28 29 31 31 31
30 30 30 33 32 32 32 31 30 30 29 28 27 28 28 30 32 32 31 30 29 28 28 29 30 31 31 31 31 30 28 30 30 30 29 29 28 27 26 26 26 27 27
28 28 29 29 29 31 32 32 32 31 30 29 28 28 27 28 29 30 30 30 30 27 27 28 29 29 30 30 30 31 31 32 29 27 26 26 25 27 27 25 23 18 15
26 25 25 26 27 27 26 28 29 31 29 28 27 26 26 29 28 29 29 29 28 27 28 29 28 27 27 26 26 27 28 28 27 26 25 24 23 23 23 25 26 20 14
26 25 24 23 23 24 25 24 24 26 25 26 25 24 24 25 28 29 30 29 29 28 28 27 26 25 25 25 25 25 25 25 25 24 22 20 21 17 15 16 15 16 16
27 27 25 23 22 21 22 23 22 24 25 23 23 23 22 23 26 27 27 28 28 27 27 26 25 24 24 22 20 19 19 19 19 19 18 17 15 14 13 15 15 15 13
26 25 26 27 24 22 20 20 23 23 24 23 23 22 23 23 24 25 25 25 25 25 24 23 22 21 19 18 18 16 15 16 16 16 16 16 16 14 14 14 14 15 13
24 24 24 25 25 24 23 19 17 20 21 22 23 23 23 24 23 22 21 22 23 23 21 20 18 17 15 15 15 14 14 14 15 15 15 15 15 15 13 13 12 11 10
23 23 22 23 23 23 23 22 22 20 18 18 19 19 19 19 20 23 23 20 17 17 17 16 15 15 14 14 13 13 13 13 13 14 12 13 13 14 11 10 11 9 9
22 23 24 23 23 23 22 21 20 18 16 15 16 18 18 15 16 16 16 16 14 12 12 12 13 13 13 13 14 14 11 10 10 11 12 11 10 12 10 9 9 8 7
20 19 20 20 20 20 19 18 17 15 12 11 12 13 15 14 14 14 14 14 13 13 12 12 13 13 12 13 12 10 12 9 9 10 8 8 7 10 7 7 8 7 7
19 18 17 17 17 16 16 15 15 14 11 10 10 11 13 12 12 12 12 12 12 12 13 11 11 10 11 10 11 10 9 9 7 7 7 7 6 8 8 7 7 7 6
16 15 14 14 14 14 15 15 14 13 12 12 11 10 12 13 11 11 11 11 11 10 12 12 10 8 8 9 8 8 8 6 6 5 4 5 5 8 5 6 6 5 6
15 14 13 14 16 15 14 12 13 14 13 12 12 11 12 10 9 11 10 11 11 10 7 9 8 7 6 10 8 9 6 4 5 3 1 4 4 4 3 3 3 4 4
14 13 12 14 12 12 13 16 13 9 11 13 13 11 10 10 11 10 8 6 7 8 5 9 4 2 2 2 5 5 2 0 1 1 0 3 2 4 1 3 2 2 2
12 11 12 12 12 12 12 11 11 10 11 10 9 10 8 8 9 9 6 6 3 5 4 6 3 2 1 1 3 -1 -2 -1 -2 -2 -1 -1 1 2 4 3 1 1 3
9 9 10 10 10 10 10 10 11 10 10 8 9 8 7 7 9 6 4 4 1 1 3 3 4 0 -0 5 1 -2 -2 -1 -2 -3 -3 -1 2 2 -1 -1 -0 -0 1
Wind_Speed
16 11 13 10 8 11 11 11 11 12 12 12 11 8 19 22 23 24 20 23 21 19 14 17 12 9 7 7 9 5 4 5 6 4 2 3 4 8 8 10 14 17 17
14 12 12 10 11 12 10 11 12 12 12 12 12 11 9 12 24 22 20 19 19 19 16 13 14 10 12 11 11 14 13 10 9 12 8 5 9 9 11 14 14 15 18
16 13 11 12 10 10 11 10 13 13 12 12 13 14 13 13 15 17 21 17 16 14 14 14 11 12 15 15 15 16 15 10 10 9 10 11 15 12 14 14 16 18 19
11 10 10 12 11 11 11 12 15 14 14 13 12 13 14 12 12 13 13 15 12 11 11 14 15 18 18 17 15 15 13 13 12 14 15 14 14 15 12 16 19 14 16
7 8 9 11 14 13 15 14 14 16 15 15 14 15 14 14 11 14 15 17 18 16 16 16 17 17 18 18 15 15 13 15 13 14 16 15 16 16 17 12 13 9 5
6 4 3 8 11 13 10 14 14 14 15 15 18 16 12 9 4 11 18 17 16 17 17 18 19 15 18 17 13 11 4 13 15 13 14 18 12 2 2 4 3 3 2
15 13 14 12 15 16 14 14 14 16 18 18 19 18 15 10 9 2 15 9 12 7 7 6 7 5 8 9 19 21 19 17 8 3 9 1 2 4 4 3 1 2 2
18 17 15 14 16 15 17 16 16 17 18 16 18 16 15 16 12 4 19 17 17 15 13 11 9 7 8 10 17 19 18 15 13 14 16 12 8 3 1 0 2 4 6
21 21 18 14 14 15 18 17 16 20 20 19 18 19 17 20 22 16 17 18 20 20 18 18 10 8 6 13 18 21 20 18 19 22 21 19 20 20 16 6 6 2 3
20 21 20 19 17 18 16 17 18 22 21 20 23 21 24 22 24 21 17 16 20 18 18 20 25 20 16 15 18 17 17 12 13 14 13 16 17 18 21 15 10 8 5
20 27 28 23 22 20 18 17 20 21 23 24 25 22 24 23 25 28 24 19 18 19 19 19 19 28 28 25 20 18 16 13 13 13 14 13 13 13 13 14 14 12 10
22 28 28 29 25 20 19 18 16 19 21 20 22 21 22 22 25 31 30 26 21 24 21 19 21 31 30 25 21 18 17 12 12 12 13 13 12 9 7 6 9 12 12
26 25 26 28 24 24 26 23 20 15 21 15 18 21 19 13 19 28 31 27 24 22 18 22 24 26 25 23 26 22 17 13 12 12 12 11 9 7 7 4 1 7 8
23 25 24 25 26 23 23 23 19 18 24 15 17 18 17 17 17 12 13 14 17 17 17 17 19 20 20 17 15 14 13 12 11 11 10 11 9 9 12 11 9 8 5
20 17 19 18 21 21 26 22 19 25 21 16 17 16 20 16 16 17 12 14 16 18 16 16 16 15 15 14 15 15 14 12 13 13 13 12 12 12 11 12 11 8 7
18 18 16 12 14 15 16 21 29 29 30 28 25 19 18 22 21 20 21 23 22 18 17 17 16 15 15 13 13 13 14 13 13 12 13 12 11 10 9 10 11 11 10
17 16 14 14 14 15 11 12 13 18 27 27 27 26 24 21 17 17 21 23 20 17 17 15 14 13 14 14 13 13 13 13 11 12 12 12 12 11 12 11 11 10 12
14 16 15 14 14 14 13 14 11 11 12 13 19 19 21 22 21 20 15 16 16 17 15 14 13 13 13 14 12 12 12 12 12 11 12 13 14 11 11 12 11 12 11
15 13 12 12 12 11 11 12 14 14 14 13 13 12 14 19 20 21 19 16 15 15 14 14 14 13 13 12 12 9 11 11 12 11 13 13 15 13 12 13 12 12 12
12 14 13 11 11 11 12 12 12 13 14 13 12 12 10 12 14 14 15 14 14 14 12 13 13 12 12 11 11 11 10 12 12 12 14 13 12 12 11 12 11 11 11
11 11 13 12 12 11 10 11 10 10 11 10 9 11 13 12 11 12 12 13 13 13 12 11 12 13 12 12 11 10 11 11 12 12 12 12 12 12 12 12 11 11 11
11 10 9 9 9 10 10 10 10 10 10 9 8 10 14 12 11 11 12 11 12 12 12 11 11 11 10 11 11 11 11 12 12 11 11 12 12 10 12 12 12 13 12
10 10 10 11 10 9 10 11 10 8 8 9 9 9 9 9 10 10 10 10 9 10 10 11 12 11 12 11 11 10 11 11 11 10 10 12 11 10 11 12 13 13 12
10 10 9 7 8 9 9 7 5 7 8 7 7 7 7 7 7 8 9 9 10 9 10 8 8 8 8 9 10 11 10 10 10 10 11 10 11 10 10 10 10 11 11
10 10 9 8 7 8 7 7 7 8 7 7 7 7 7 6 7 8 8 7 4 6 4 3 7 7 6 5 11 10 8 8 7 8 10 11 11 12 9 8 10 12 12
9 10 10 9 9 9 9 8 8 7 8 7 6 5 4 4 6 5 4 7 7 6 2 3 6 4 2 8 9 6 3 4 5 7 8 11 11 8 10 11 10 10 11
Wind_Direction
134 146 138 136 149 144 158 173 180 160 166 175 167 156 182 183 174 175 166 175 177 181 181 181 175 164 174 226 249 254 244 169 193 257 254 119 171 206 224 231 234 226 233
133 120 131 144 169 161 149 168 157 155 162 160 151 141 120 165 177 171 160 164 163 162 163 168 182 187 203 207 213 221 230 202 193 217 232 242 256 240 231 231 230 234 236
122 126 145 162 180 158 148 159 149 151 150 146 142 135 128 115 109 141 141 137 139 153 164 177 186 200 211 213 218 211 210 201 198 210 226 225 243 248 252 247 246 247 248
117 142 172 172 168 157 163 160 154 162 159 155 154 153 153 144 137 133 136 143 161 180 195 207 215 219 223 215 198 203 202 199 203 222 234 241 249 268 255 262 271 253 254
165 171 194 186 176 172 166 163 158 169 177 172 167 172 165 159 166 168 173 181 191 199 203 210 227 227 224 206 213 210 199 206 212 222 245 258 260 261 255 261 260 289 54
70 111 151 196 170 151 145 146 165 170 171 178 179 178 138 94 47 197 186 189 193 198 205 210 224 232 228 214 229 87 120 221 229 225 246 261 266 118 28 46 22 20 306
69 57 63 63 71 64 74 79 68 70 80 73 72 82 80 52 17 100 186 178 183 164 178 172 151 77 69 125 103 92 74 64 63 226 240 260 357 6 324 307 110 125 226
40 43 44 61 70 68 73 72 69 69 71 71 65 65 62 30 20 54 111 99 86 69 60 60 83 79 50 113 113 94 79 63 59 72 87 86 71 30 244 78 114 113 88
31 40 32 43 70 73 73 71 73 76 69 66 62 59 56 41 37 59 92 92 85 72 61 54 58 53 49 118 113 108 97 86 78 83 85 76 58 51 44 120 79 137 124
28 49 48 47 52 69 77 79 80 81 79 70 64 56 53 52 44 58 79 94 89 80 63 53 48 55 78 104 115 117 109 112 107 94 74 58 56 40 46 45 41 80 99
30 51 47 42 46 47 61 70 82 85 86 81 71 61 57 54 57 61 65 74 85 80 70 63 56 65 66 70 76 86 100 101 89 78 78 72 58 52 45 47 51 59 89
47 48 53 46 39 33 45 48 58 77 77 82 86 74 62 57 61 68 72 76 79 86 79 75 67 67 65 64 73 80 82 80 83 83 74 67 57 57 59 80 96 96 84
44 47 50 55 49 39 43 32 31 51 68 61 70 72 56 70 64 69 76 71 76 83 86 82 76 70 63 58 57 56 57 60 71 74 74 77 69 54 55 11 114 135 117
52 50 48 54 51 52 52 50 35 34 56 28 62 74 62 43 59 47 83 101 99 91 87 87 88 81 74 70 63 58 60 55 54 60 67 55 51 61 52 30 21 17 57
44 56 60 56 59 53 58 58 54 49 59 64 53 55 73 62 64 69 70 78 79 81 81 76 74 70 68 71 63 56 43 47 53 47 45 52 54 27 46 29 20 10 31
51 49 41 58 80 74 66 64 56 61 60 62 64 62 63 67 66 67 66 67 68 72 73 72 67 68 67 62 65 64 50 41 40 46 44 34 41 43 28 41 27 15 11
46 46 47 47 50 55 90 85 77 60 62 59 54 55 56 54 49 59 67 68 73 72 74 69 71 66 68 59 55 53 51 40 42 46 44 33 16 29 30 25 53 23 7
49 48 50 46 50 48 52 61 69 73 71 70 63 60 56 54 53 55 70 73 66 62 65 68 66 64 66 64 60 51 51 31 29 46 43 33 15 20 38 23 26 21 359
35 37 47 52 46 53 60 65 66 65 59 46 39 35 54 56 53 52 54 60 66 67 64 61 55 54 62 64 46 60 62 51 30 42 38 37 17 8 23 12 12 5 350
44 32 42 42 43 47 49 55 62 68 62 53 37 15 34 56 55 48 45 51 57 53 60 62 57 53 44 46 64 36 45 49 31 27 34 31 8 351 16 1 1 357 347
34 38 39 40 33 42 51 52 61 80 90 76 47 15 33 62 62 60 55 46 46 46 43 58 59 45 34 36 35 53 49 44 41 25 20 6 354 351 12 357 350 359 359
22 28 41 47 54 31 43 52 55 55 60 83 88 51 43 48 57 60 56 50 47 38 29 41 61 63 45 32 28 30 53 51 42 30 10 352 350 8 6 350 356 360 355
25 29 41 31 17 52 55 44 31 55 69 63 66 60 61 60 48 53 52 35 52 59 37 40 45 48 33 21 31 38 60 45 20 44 8 340 342 1 9 351 352 354 359
20 20 28 54 35 41 26 71 79 55 44 53 61 71 67 73 71 79 69 45 19 60 41 40 78 58 47 14 28 66 57 42 9 21 347 339 337 353 344 327 334 338 344
16 11 23 31 32 23 31 46 53 40 43 48 41 44 45 55 76 78 80 90 43 36 56 77 70 57 53 337 89 79 48 28 3 360 352 326 316 315 318 353 8 345 333
15 11 11 12 21 17 15 19 23 37 32 23 24 37 41 38 73 69 82 91 55 351 310 45 107 82 317 86 78 75 35 351 22 4 325 304 304 358 4 347 327 320 315